Location: Newark
(54.2500°N, 9.1833°E)
Time: 13:47:03
(UTC+00:00)

Vanguard 3 - Pass Details

Date: 22 December 2019
Orbit: 507 x 3263 km, 33.4° (Epoch: 24 January)

Event Time Altitude Azimuth Distance (km) Brightness Sun altitude
Rises 06:47:33 0° 228° (SW) 3,208 10.0 -7.3°
Reaches altitude 10° 06:51:54 10° 192° (SSW) 2,745 10.1 -6.7°
Maximum altitude 06:53:39 11° 176° (S) 2,864 10.5 -6.5°
Drops below altitude 10° 06:55:37 10° 161° (SSE) 3,175 11.0 -6.3°
Sets 07:02:21 0° 132° (SE) 4,943 13.6 -5.4°
